Cloud_Cover
12 19 31 14 5 4 9 47 85 99 44 86 72 91 7 5 5 5 5 34 18 92 87 100 98 98 99 89 99 71 91 5 2 2 0 0 0 0 2 49 42 96 61
20 5 16 27 12 34 28 27 85 84 82 83 72 92 53 5 0 5 2 0 5 6 100 48 100 99 74 21 23 18 5 15 67 70 0 0 0 0 0 5 54 100 100
0 4 4 37 11 5 10 45 100 14 58 35 38 51 18 1 5 4 2 5 5 96 95 99 80 71 9 71 13 89 5 5 100 100 100 2 0 0 2 5 8 89 100
0 5 9 26 10 5 40 98 18 8 12 34 5 30 5 5 1 5 5 5 7 97 99 6 5 14 99 60 75 68 68 24 100 100 83 5 4 0 0 5 41 19 16
5 4 5 31 5 4 41 67 6 5 55 31 6 69 24 3 5 5 5 5 5 5 39 67 10 5 15 100 100 100 100 60 82 100 100 34 4 4 0 0 1 4 5
17 7 7 1 2 0 4 7 4 3 6 56 28 81 17 5 5 5 5 5 5 5 5 92 100 74 5 5 5 32 97 100 95 83 78 100 22 3 2 2 0 0 0
0 5 3 0 0 0 1 5 1 0 5 35 67 84 25 5 14 5 5 5 24 28 5 44 98 98 100 78 20 5 5 5 77 69 100 41 13 93 7 3 2 0 0
3 0 0 0 0 0 0 5 4 4 0 17 66 92 93 18 14 5 5 5 0 4 0 2 3 5 44 100 81 5 5 5 7 99 87 5 5 67 100 5 3 15 7
2 3 3 0 3 0 2 6 5 3 3 5 12 76 100 100 5 6 10 5 5 2 0 4 5 1 5 37 100 85 10 20 24 6 6 5 48 37 44 100 54 5 8
5 5 5 0 3 0 6 53 5 0 5 8 5 73 97 23 5 5 44 17 5 5 14 2 0 0 3 20 44 100 100 91 8 5 5 5 5 5 5 16 100 95 100
5 5 0 0 0 0 6 7 5 0 3 5 5 56 38 5 5 1 5 32 20 5 6 97 19 4 9 100 100 78 100 98 99 9 4 4 0 5 5 9 5 48 91
1 1 11 0 0 0 1 27 5 1 0 4 5 5 15 20 40 56 24 2 5 5 5 5 33 100 44 96 80 100 94 100 16 5 5 5 5 5 4 5 5 5 4
65 64 1 0 0 0 0 2 2 0 0 4 5 6 16 2 0 5 5 0 0 2 7 5 82 10 66 49 53 87 100 5 76 5 21 5 5 5 5 5 5 5 22
99 62 17 0 0 0 2 4 3 2 5 5 1 5 5 4 1 0 5 0 0 5 18 16 17 52 92 47 58 99 35 8 8 5 5 5 5 5 5 5 10 10 51
26 5 24 1 0 0 0 5 5 8 96 74 29 4 5 0 0 8 5 0 12 22 64 100 98 98 98 82 25 5 34 100 57 7 5 5 5 5 5 6 41 44 91
2 0 0 0 0 0 2 4 4 60 68 76 100 31 60 2 1 7 8 6 10 41 53 82 100 86 82 73 65 7 7 5 5 5 8 79 24 36 65 75 45 98 100
0 0 0 0 0 3 6 2 3 18 18 16 9 5 48 39 5 5 28 16 0 16 54 39 97 50 59 96 100 100 97 89 69 5 5 36 100 99 23 13 64 74 100
0 0 0 0 0 0 4 19 5 5 10 18 18 24 13 23 41 14 5 0 5 11 95 63 73 20 100 88 100 28 10 100 100 100 94 82 97 100 76 100 97 17 93
0 0 0 0 0 0 1 63 71 13 8 11 9 15 17 12 10 5 9 14 6 64 100 100 33 65 75 56 29 84 86 100 100 100 100 100 100 100 100 100 97 98 100
0 0 0 0 0 4 1 0 5 39 72 24 21 6 8 16 27 49 100 77 58 100 82 52 49 64 92 76 93 94 97 100 100 100 100 100 100 100 100 100 100 25 89
3 17 15 7 0 0 0 0 3 6 23 21 15 18 66 74 62 100 100 100 96 100 100 100 100 78 98 100 100 100 100 100 100 100 100 100 100 100 98 100 100 100 99
14 12 0 12 12 1 0 0 4 5 7 15 5 71 74 48 24 75 100 100 99 66 70 47 69 72 92 97 88 100 100 56 97 98 100 70 98 36 84 100 100 99 100
65 100 22 32 8 16 0 0 0 5 5 30 22 35 49 100 100 84 29 34 34 16 45 38 81 70 97 84 99 100 100 100 100 100 100 100 94 98 97 100 100 100 100
93 98 10 58 24 0 0 0 0 4 1 40 24 38 57 82 27 49 95 76 52 74 81 98 88 80 97 100 100 100 100 100 100 100 100 100 100 85 50 39 83 88 90
89 97 39 70 42 20 18 25 38 0 23 76 100 99 100 65 8 7 61 100 100 90 96 96 100 100 100 100 100 100 100 100 100 100 99 100 100 99 100 100 100 100 100
69 100 100 92 7 5 93 48 22 8 100 100 92 67 40 9 45 97 100 100 100 100 100 100 100 100 100 100 100 100 100 100 82 97 82 78 84 37 5 5 5 6 5